• In Russia
  • List of Countries
  • For 7 days
  • Water Temperature
  • Satellite Maps
  • Weather Map
  • Weather Widgets
  • user-avatar
    Login

    Hourly Weather Brisbane

    Today, 17 August, Friday

    Time Temperature Precipitation Wind Pressure Humidity
    00:00 +17°C° 0 mm 2 mps 758 mmHg 32%
    01:00 +16°C° 0 mm 2 mps 758 mmHg 33%
    02:00 +15°C° 0 mm 2 mps 758 mmHg 34%
    03:00 +15°C° 0 mm 2 mps 758 mmHg 34%
    04:00 +15°C° 0 mm 2 mps 758 mmHg 33%
    05:00 +15°C° 0 mm 2 mps 758 mmHg 34%
    06:00 +15°C° 0 mm 2 mps 758 mmHg 34%
    07:00 +15°C° 0 mm 2 mps 759 mmHg 35%
    08:00 +18°C° 0 mm 2 mps 759 mmHg 30%
    09:00 +23°C° 0 mm 2 mps 759 mmHg 26%
    10:00 +27°C° 0 mm 1 mps 759 mmHg 20%
    11:00 +28°C° 0 mm 2 mps 759 mmHg 19%
    12:00 +29°C° 0 mm 2 mps 758 mmHg 18%
    13:00 +30°C° 0 mm 2 mps 758 mmHg 17%
    14:00 +30°C° 0 mm 3 mps 757 mmHg 19%
    15:00 +29°C° 0 mm 3 mps 757 mmHg 21%
    16:00 +28°C° 0 mm 4 mps 757 mmHg 24%
    17:00 +25°C° 0 mm 3 mps 757 mmHg 29%
    18:00 +22°C° 0 mm 3 mps 758 mmHg 35%
    19:00 +20°C° 0 mm 2 mps 758 mmHg 40%
    20:00 +19°C° 0 mm 2 mps 759 mmHg 42%
    21:00 +18°C° 0 mm 2 mps 759 mmHg 44%
    22:00 +18°C° 0 mm 2 mps 759 mmHg 48%
    23:00 +17°C° 0 mm 2 mps 759 mmHg 50%

    Tomorrow, 18 August, Saturday

    Time Temperature Precipitation Wind Pressure Humidity
    00:00 +17°C° 0 mm 2 mps 759 mmHg 52%
    01:00 +16°C° 0 mm 2 mps 759 mmHg 55%
    02:00 +15°C° 0 mm 2 mps 760 mmHg 56%
    03:00 +15°C° 0 mm 2 mps 760 mmHg 57%
    04:00 +14°C° 0 mm 2 mps 760 mmHg 58%
    05:00 +14°C° 0 mm 2 mps 760 mmHg 57%
    06:00 +14°C° 0 mm 2 mps 760 mmHg 57%
    07:00 +14°C° 0 mm 2 mps 760 mmHg 56%
    08:00 +17°C° 0 mm 2 mps 761 mmHg 46%
    09:00 +21°C° 0 mm 3 mps 761 mmHg 37%
    10:00 +25°C° 0 mm 3 mps 761 mmHg 28%
    11:00 +26°C° 0 mm 3 mps 760 mmHg 25%
    12:00 +28°C° 0 mm 3 mps 759 mmHg 22%
    13:00 +29°C° 0 mm 4 mps 758 mmHg 20%
    14:00 +29°C° 0 mm 4 mps 758 mmHg 21%
    15:00 +28°C° 0 mm 4 mps 758 mmHg 22%
    16:00 +28°C° 0 mm 4 mps 757 mmHg 23%
    17:00 +25°C° 0 mm 4 mps 757 mmHg 29%
    18:00 +22°C° 0 mm 3 mps 758 mmHg 34%
    19:00 +20°C° 0 mm 3 mps 758 mmHg 40%
    20:00 +19°C° 0 mm 3 mps 759 mmHg 39%
    21:00 +18°C° 0 mm 3 mps 759 mmHg 39%
    22:00 +17°C° 0 mm 3 mps 759 mmHg 38%
    23:00 +16°C° 0 mm 3 mps 759 mmHg 38%

    Day after tomorrow, 19 August, Sunday

    Time Temperature Precipitation Wind Pressure Humidity
    00:00 +16°C° 0 mm 3 mps 759 mmHg 38%
    01:00 +14°C° 0 mm 3 mps 759 mmHg 38%
    02:00 +14°C° 0 mm 4 mps 759 mmHg 39%
    03:00 +14°C° 0 mm 4 mps 759 mmHg 39%
    04:00 +14°C° 0 mm 5 mps 759 mmHg 40%
    05:00 +13°C° 0 mm 5 mps 760 mmHg 42%
    06:00 +13°C° 0 mm 5 mps 760 mmHg 45%
    07:00 +13°C° 0 mm 5 mps 761 mmHg 47%
    08:00 +14°C° 0 mm 5 mps 761 mmHg 40%
    09:00 +16°C° 0 mm 6 mps 761 mmHg 33%
    10:00 +19°C° 0 mm 6 mps 761 mmHg 25%
    11:00 +20°C° 0 mm 6 mps 760 mmHg 23%
    12:00 +20°C° 0 mm 7 mps 760 mmHg 20%
    13:00 +21°C° 0 mm 7 mps 759 mmHg 18%
    14:00 +21°C° 0 mm 7 mps 759 mmHg 18%
    15:00 +20°C° 0 mm 7 mps 759 mmHg 18%
    16:00 +20°C° 0 mm 8 mps 758 mmHg 18%
    17:00 +17°C° 0 mm 7 mps 759 mmHg 21%
    18:00 +16°C° 0 mm 7 mps 760 mmHg 24%
    19:00 +14°C° 0 mm 7 mps 760 mmHg 26%
    20:00 +12°C° 0 mm 7 mps 761 mmHg 29%
    21:00 +12°C° 0 mm 7 mps 761 mmHg 32%
    22:00 +11°C° 0 mm 7 mps 762 mmHg 35%
    23:00 +10°C° 0 mm 7 mps 762 mmHg 36%

    20 August, Monday

    Time Temperature Precipitation Wind Pressure Humidity
    00:00 +10°C° 0 mm 7 mps 761 mmHg 37%
    01:00 +9°C° 0 mm 7 mps 761 mmHg 38%
    02:00 +9°C° 0 mm 7 mps 761 mmHg 38%
    03:00 +8°C° 0 mm 7 mps 761 mmHg 39%
    04:00 +8°C° 0 mm 6 mps 761 mmHg 39%
    05:00 +8°C° 0 mm 6 mps 761 mmHg 41%
    06:00 +7°C° 0 mm 6 mps 762 mmHg 42%
    07:00 +7°C° 0 mm 5 mps 762 mmHg 44%
    08:00 +10°C° 0 mm 6 mps 762 mmHg 35%
    09:00 +13°C° 0 mm 6 mps 762 mmHg 26%
    10:00 +15°C° 0 mm 6 mps 762 mmHg 17%
    11:00 +17°C° 0 mm 5 mps 762 mmHg 15%
    12:00 +19°C° 0 mm 5 mps 761 mmHg 13%
    13:00 +20°C° 0 mm 4 mps 761 mmHg 11%
    14:00 +21°C° 0 mm 3 mps 760 mmHg 11%
    15:00 +21°C° 0 mm 3 mps 760 mmHg 12%
    16:00 +21°C° 0 mm 2 mps 760 mmHg 12%
    17:00 +18°C° 0 mm 2 mps 761 mmHg 17%
    18:00 +16°C° 0 mm 2 mps 761 mmHg 23%
    19:00 +14°C° 0 mm 2 mps 762 mmHg 28%
    20:00 +13°C° 0 mm 2 mps 762 mmHg 29%
    21:00 +12°C° 0 mm 2 mps 763 mmHg 31%
    22:00 +10°C° 0 mm 2 mps 763 mmHg 32%
    23:00 +10°C° 0 mm 3 mps 763 mmHg 33%

    21 August, Tuesday

    Time Temperature Precipitation Wind Pressure Humidity
    00:00 +9°C° 0 mm 3 mps 763 mmHg 34%
    01:00 +9°C° 0 mm 3 mps 762 mmHg 34%
    02:00 +8°C° 0 mm 3 mps 762 mmHg 37%
    03:00 +8°C° 0 mm 3 mps 762 mmHg 39%
    04:00 +7°C° 0 mm 3 mps 762 mmHg 41%
    05:00 +7°C° 0 mm 3 mps 762 mmHg 42%
    06:00 +7°C° 0 mm 3 mps 762 mmHg 42%
    07:00 +7°C° 0 mm 3 mps 762 mmHg 43%
    08:00 +10°C° 0 mm 3 mps 762 mmHg 36%
    09:00 +14°C° 0 mm 3 mps 762 mmHg 29%
    10:00 +18°C° 0 mm 2 mps 761 mmHg 22%
    11:00 +20°C° 0 mm 3 mps 760 mmHg 19%
    12:00 +21°C° 0 mm 3 mps 759 mmHg 16%
    13:00 +24°C° 0 mm 3 mps 758 mmHg 13%
    14:00 +24°C° 0 mm 3 mps 758 mmHg 14%
    15:00 +23°C° 0 mm 4 mps 758 mmHg 15%
    16:00 +23°C° 0 mm 4 mps 757 mmHg 16%
    17:00 +20°C° 0 mm 4 mps 758 mmHg 20%
    18:00 +18°C° 0 mm 4 mps 758 mmHg 24%
    19:00 +15°C° 0 mm 4 mps 759 mmHg 27%
    20:00 +14°C° 0 mm 4 mps 759 mmHg 30%
    21:00 +13°C° 0 mm 4 mps 760 mmHg 33%
    22:00 +12°C° 0 mm 4 mps 760 mmHg 36%
    23:00 +11°C° 0 mm 4 mps 760 mmHg 38%

    22 August, Wednesday

    Time Temperature Precipitation Wind Pressure Humidity
    00:00 +10°C° 0 mm 4 mps 760 mmHg 41%
    01:00 +8°C° 0 mm 4 mps 760 mmHg 43%
    02:00 +9°C° 0 mm 3 mps 760 mmHg 45%
    03:00 +8°C° 0 mm 3 mps 760 mmHg 48%
    04:00 +8°C° 0 mm 3 mps 760 mmHg 50%
    05:00 +8°C° 0 mm 3 mps 760 mmHg 50%
    06:00 +8°C° 0 mm 3 mps 761 mmHg 49%
    07:00 +8°C° 0 mm 3 mps 761 mmHg 49%
    08:00 +12°C° 0 mm 3 mps 761 mmHg 41%
    09:00 +16°C° 0 mm 3 mps 761 mmHg 33%
    10:00 +19°C° 0 mm 4 mps 761 mmHg 25%
    11:00 +20°C° 0 mm 4 mps 760 mmHg 22%
    12:00 +22°C° 0 mm 4 mps 759 mmHg 20%
    13:00 +23°C° 0 mm 4 mps 758 mmHg 17%
    14:00 +23°C° 0 mm 4 mps 758 mmHg 17%
    15:00 +23°C° 0 mm 4 mps 758 mmHg 18%
    16:00 +23°C° 0 mm 4 mps 757 mmHg 18%
    17:00 +21°C° 0 mm 3 mps 758 mmHg 22%
    18:00 +18°C° 0 mm 3 mps 759 mmHg 27%
    19:00 +16°C° 0 mm 3 mps 759 mmHg 31%
    20:00 +14°C° 0 mm 3 mps 760 mmHg 33%
    21:00 +14°C° 0 mm 2 mps 760 mmHg 35%
    22:00 +13°C° 0 mm 2 mps 760 mmHg 37%
    23:00 +13°C° 0 mm 2 mps 760 mmHg 39%
    Show more